STARLINK-30516, 57984

Orbit data source: Space-Track

STARLINK-30516, 57984 is a payload satellite owned by SpaceX/Seattle (US) in LEO that was launched on Sat, 30 Sep 2023 UTC via an FALCON 9 launch vehicle from the Air Force Eastern Test Range (AFETR). Payload-class satellites include a variety of spacecraft equipped with specific instruments for various scientific and technological missions. These include communications satellites like Starlink; space stations such as the ISS; scientific satellites like the Hubble; Earth observation satellites from companies like Planet Labs, Umbra, and HawkEye 360; GPS; miniature CubeSats for education and research; and military/defense satellites.

Loading next visibility...
Identifier
57984, 2023-151W
Orbit
LEO
Country
Flag of USUS
Related business
Manufacturer
SpaceX/Seattle
Mission
Operational Commercial Communications
Bus & Motor
STARLINK V2M, Unknown motor
Mass
730 kg wet, ~700 kg dry
Launch date (UTC)
2023-09-30 (3 years ago)
Launch vehicle
FALCON 9
Launch site
Air Force Eastern Test Range (AFETR)
Object type
Payload
Rocket body
Debris
Shape & HBR
Box + 2 Pan, 17.7 m
Radar Cross Section
33.884 m², Large (>1 m²)

Expand to show TLE details & history
Last TLE update: 1 day ago

TLE from 1 day ago
0 STARLINK-30516
1 57984U 23151W   26175.13886394 -.00000179  00000-0  30167-5 0  9998
2 57984  43.0040 112.9024 0001397 277.6856  82.3837 15.27572760151837
Epoch: 2026-06-24T03:19Z
TLE epoch observation values (Epoch: 2026-06-24T03:19:57.844Z)
Latitude
-0.00002°
Longitude
150.61099°
Altitude
482.72 km
Speed
7.626 km/s
True Right ascension
07h 31m 36s
True Declination
0° 00' 00"
Sunlit
Object was in daylight at epoch
Visualization orbit readout
Latitude
Unknown
Longitude
Unknown
Altitude
Unknown
Speed
Unknown
Apparent Right ascension
Unknown
Apparent Declination
Unknown
Sunlit
N/A
Visualization observer readout
Local Sidereal Time
15:09:18
Azimuth
Unknown
Elevation
Unknown
Doppler factor
Unknown
Orbital elements
Apogee altitude
485.974 km
Perigee altitude
484.056 km
Semi-major axis
6,863.152 km
Eccentricity
0.00014
Inclination
43.004°
RAAN
112.9024°
Arg. of periapsis
277.6856°
True anomaly
82.39957°
Mean anomaly
82.3837°
Eccentric anomaly
82.39163°
Mean motion
3.81731 °/min
Orbital period
94.31 mins
BSTAR
0.0000030167
Loading maneuver chart data...
Computing Atmospheric mass density...
Loading historical data...
Loading historical data...
Loading historical data...
Loading historical data...
Loading historical data...
Loading historical data...
Loading historical data...

Documentation

Showing up to 5 results
|